Torna al catalogo

IRIDIUM 102

AttivoComunicazioniPO
NORAD 41920·PAYLOAD·🇺🇸 United States

Lanciato Jan 14, 2017 da Vandenberg Space Force Base

Loading…

Prossimi Passaggi (prossime 24 ore)

TLE

AggiornatoSource: CelesTrak SupGP

Epoca: Sep 14, 2026, 09:11 UTC

1 41920C 17003D   26257.38298611  .00001595  00000+0  57024-3 0  2574
2 41920  86.3946  51.1153 0002086  93.6273  19.2590 14.34218821    17

Traccia IRIDIUM 102 in tempo reale con AllMySat

Download on the App Store